SPACEBEE-50 (47443 NORAD) Tracking and Keplerian Element Data

This shows tracking and keplerian element data for the satellite.

Feedback or suggestion? Click here.




ElementValue
Catalog47443
NameSPACEBEE-50
Epoch Orbit1261
Epoch Day106.0862084
Epoch Year2021
RAAN168.3366
Inclination97.5001
Eccentricity0.0005505
Argument of Perigee336.6029
Mean Anonmoly23.495
Mean Motion15.11868884
Decay Rate1.818E-05
L11 47443U 21006AG 21106.08620840 .00001818 00000-0 10999-3 0 9998
L22 47443 97.5001 168.3366 0005505 336.6029 23.4950 15.11868884 12616

Live tracking and technical data element details for SPACEBEE-50 (NORAD 47443). SPACEBEE-50 can be tracked NOW for your location showing map with azimuth and elevation plus other details from your city location.

Track the satellite on the map from your city or location and see movement details for azimuth, elevation, latitude, longitude, range, height, and movement on the map or in text.







IsCatalogInMostPopularTable: catalog: 47443, numindb: 16
Update: records affected: 1



GetName: 47443 SPACEBEE-50

Hit Count: updated at: Fri, 16 Apr 2021 11:26:22 GMT